Regional Weather Roundup
Issued by NWS Green Bay, WI

Home | Current Version | Previous Version | Text Only | Print | Product List | Glossary On
Versions: 1 2 3 4 5 6 7 8 9 10 11 12 13 14 15 16 17 18 19 20 21 22 23 24 25 26 27 28 29 30 31 32 33 34 35 36 37 38 39 40 41 42 43 44 45 46 47 48 49 50
000
ASUS43 KGRB 300811
RWRGRB

NORTH-CENTRAL AND NORTHEAST WISCONSIN REGIONAL WEATHER ROUNDUP
NATIONAL WEATHER SERVICE GREEN BAY WI
300 AM CDT SAT JUL 30 2016

WIZ005-009-010>012-018-019-300900-
NORTH CENTRAL WISCONSIN

CITY           SKY/WX    TMP DP  RH WIND       PRES   REMARKS
IRONWOOD       PTCLDY    55  54  94 CALM      30.05S
MANITOWISH WTR CLEAR     55  55 100 CALM      30.08F
ARBOR VITAE    CLEAR     58  56  96 CALM      30.09S
EAGLE RIVER    PTCLDY    54  54 100 CALM      30.09S
LAND O LAKES   PTCLDY    51  50  97 CALM      30.11S
RHINELANDER    CLEAR     54  52  93 CALM      30.09F
PHILLIPS       CLEAR     56  56  99 CALM      30.08S
ANTIGO         MOCLDY    54  52  95 CALM      30.08S
TOMAHAWK       CLEAR     49  48  97 CALM      30.09S FOG
MERRILL        PTCLDY    53  53 100 NE3       30.08S
$$

WIZ013-073-300900-
NORTHEAST WISCONSIN

CITY           SKY/WX    TMP DP  RH WIND       PRES   REMARKS
IRON MOUNTAIN  CLEAR     54  50  86 NW5       30.07S
MARINETTE      CLEAR    N/A N/A N/A NE6       30.05R
OCONTO         PTCLDY    60  60 100 N3        30.03S
$$

WIZ017-030-035>037-045-300900-
CENTRAL WISCONSIN

CITY           SKY/WX    TMP DP  RH WIND       PRES   REMARKS
MEDFORD        CLOUDY    56  56 100 N3        30.08R
WAUSAU         CLEAR     59  55  87 CALM      30.05S
MOSINEE        PTCLDY    57  55  94 NE6       30.07R
MARSHFIELD     CLOUDY    62  57  83 NE5       30.05S
WISC RAPIDS    CLOUDY    64  56  75 NE5       30.05R
STEVENS POINT  CLOUDY    59  57  94 NE5       30.05S
WAUPACA        CLOUDY    66  62  87 CALM      30.03S
SHAWANO        MOCLDY    64  58  80 NE6       30.05S
CLINTONVILLE   CLOUDY    63  55  77 N5        30.04R
WAUTOMA        CLOUDY    64  60  87 NE5       30.02S
$$

WIZ038-039-048-051-300900-
FOX VALLEY

CITY           SKY/WX    TMP DP  RH WIND       PRES   REMARKS
NWS GREEN BAY  CLEAR     61  60  97 N6        30.02S
APPLETON       CLOUDY    63  54  72 NE3       30.01S
OSHKOSH        MOCLDY    68  61  78 E3        30.00F
FOND DU LAC    CLOUDY    66  59  78 E5        30.01S
$$

WIZ022-050-052-300900-
EAST CENTRAL WISCONSIN

CITY           SKY/WX    TMP DP  RH WIND       PRES   REMARKS
EPHRAIM        FAIR      63  58  83 E6        30.04S
WASHINGTON ISL NOT AVBL
STURGEON BAY   CLEAR     67  62  84 SE7       30.04R
MANITOWOC      PTCLDY    62  60  93 CALM      30.02S
SHEBOYGAN      PTCLDY    60  59  96 CALM      30.01S FOG
$$

LMZ563-521-522-541>543-300900-
LAKESHORE

STATION/POSITION TIME  TEMP    WIND        PRES    VSBY  WAVE
                       AIR SEA DIR/SP/G                  HT/PER
                 (UTC) (F)     (DEG/KT/KT) (MB)    (MI)  (FT/S)
SHEBOYGAN LKSHOR 0800   70      90/ 12/ 13 1016.0F
KEWAUNEE LKSHORE 0700   67      30/  4/  5 1015.9F
ALGOMA MARINA    0743          170/ 12/ 15   N/A
NORTHPORT PIER   0700   71      80/  7/ 10 1017.3S
N MID LAKE BUOY  0750   70 69  120/  8/ 10 1017.1S         1/ 3
S GREEN BAY BUOY 0730   69 70   50/ 10/ 12 1016.1
SISTER BAY LKSHO 0721   66     120/  6/  7   N/A
CHAMBERS ISLAND  0740   70      50/  8/ 10 1017.3S
MENOMINEE LKSHOR 0700   71      50/ 12/ 15 1016.3R
$$




USA.gov is the U.S. government's official web portal to all federal, state and local government web resources and services.